Regional Weather Roundup
Issued by NWS San Diego, CA

Home | Current Version | Previous Version | Text Only | Print | Product List | Glossary On
Versions: 1 2 3 4 5 6 7 8 9 10 11 12 13 14 15 16 17 18 19 20 21 22 23 24 25 26 27 28 29 30 31 32 33 34 35 36 37 38 39 40 41 42 43 44 45 46 47 48 49 50
000
ASUS46 KSGX 311611
RWRSGX

SAN DIEGO HOURLY WEATHER ROUNDUP
NATIONAL WEATHER SERVICE SAN DIEGO CA
900 AM PDT TUE MAY 31 2016

NOTE: "FAIR" INDICATES FEW OR NO CLOUDS BELOW 12,000 FEET WITH NO
SIGNIFICANT WEATHER AND/OR OBSTRUCTIONS TO VISIBILITY.

CAZ042-043-060-061-PZZ750-775-311700-

GREATER SAN DIEGO AREA

CITY           SKY/WX    TMP DP  RH WIND       PRES   REMARKS
LINDBERGH FLD  CLOUDY    63  56  78 W3        29.92R
POINT LOMA       N/A     62  56  81 W5          N/A
NATIONAL CITY    N/A     63  59  86 CALM      29.92R
CHULA VISTA      N/A     63  60  90 W3        29.84R
IMPERIAL BEACH CLOUDY    66  56  70 VRB3      29.91S
BROWN FIELD    CLOUDY    62  57  83 VRB3      29.91R HAZE
MIRAMAR MCAS   CLOUDY    65  56  72 W3        29.90S
MONTGOMERY FLD CLOUDY    63  55  75 CALM      29.91S

$$

NORTH SAN DIEGO COUNTY

CITY           SKY/WX    TMP DP  RH WIND       PRES   REMARKS
CAMP PENDLETON CLOUDY    63  58  83 W3        29.90S HAZE
OCEANSIDE AP   CLOUDY    62  57  83 CALM      29.90R HAZE
OCEANSIDE HBR    N/A     62  60  93 CALM      29.93S
VISTA            N/A     61  57  85 CALM      29.88S
CARLSBAD       CLOUDY    61  58  90 CALM      29.90R
DEL MAR          N/A     61  59  92 CALM      29.93S
LA JOLLA SCRIP   N/A     61  59  92 SW2       29.90S
FALLBROOK        N/A     60  59  97 CALM      29.89R
ESCONDIDO        N/A     60  57  88 CALM      29.92S
SAN MARCOS       N/A     60  53  78 CALM      29.89R
POWAY            N/A     60  56  85 CALM      29.92S

$$

EAST SAN DIEGO COUNTY

CITY           SKY/WX    TMP DP  RH WIND       PRES   REMARKS
RAMONA         CLOUDY    57  55  93 S3        29.91S FOG
SANTEE LAKES     N/A     62  58  86 CALM      29.89S
LA MESA          N/A     61  57  87 CALM      29.84R
JAMUL            N/A     59  57  94 W1        29.90S
DESCANSO N       N/A     68  49  50 CALM      29.74F
MT. LAGUNA OBS   N/A     70  32  24 N3        29.65S
CAMPO            N/A     67  50  54 SW6       29.88S

$$

ORANGE COUNTY AND THE LOS ANGELES BASIN

CITY           SKY/WX    TMP DP  RH WIND       PRES   REMARKS
JOHN WAYNE AP  CLOUDY    61  55  81 SE5       29.91R
LAKE FOREST FR   N/A     57  53  85 CALM      29.82R
HUNTINGTON BCH   N/A     62  58  87 CALM      29.93R
LOS ALAMITOS   CLOUDY    62  57  83 W2        29.90S
FULLERTON      CLOUDY    61  56  83 CALM      29.90R
LONG BEACH     CLOUDY    61  57  87 S5        29.91R
L.A. AP        CLOUDY    62  56  80 CALM      29.90S FOG
L.A. DOWNTOWN  CLOUDY    62  56  80 CALM      29.90R HAZE

$$

THE INLAND EMPIRE

CITY           SKY/WX    TMP DP  RH WIND       PRES   REMARKS
CORONA         CLOUDY    61  56  83 VRB5      29.91R
CHINO          CLOUDY    63  56  78 W5        29.92R HAZE
ONTARIO        PTSUNNY   61  54  77 SW7       29.90S HAZE
SAN BERNARDINO SUNNY     66  55  68 CALM      29.90S HAZE
RIVERSIDE AP   MOSUNNY   62  54  74 VRB5      29.90S
MORENO VALLEY    N/A     66  60  83 CALM      28.03R
MARCH ARB      SUNNY     65  56  74 VRB2      29.89S
HORSETHIEF CYN   N/A     63  53  70 CALM      29.91S
PERRIS           N/A     60  59  98 S3        29.88S
HEMET EAST       N/A     61  51  69 CALM      29.76S
FRENCH VALLEY  CLOUDY    57  54  88 S6        29.91S
TEMECULA         N/A     59  57  94 S6        29.87S

$$

SAN BERNARDINO AND RIVERSIDE COUNTY MOUNTAINS

CITY           SKY/WX    TMP DP  RH WIND       PRES   REMARKS
BIG BEAR AP    SUNNY     66  28  24 E9        30.16S
PINE COVE        N/A     69  37  30 NW1       29.81R

$$

SOUTHERN DESERT INCLUDING THE COACHELLA VALLEY

CITY           SKY/WX    TMP DP  RH WIND       PRES   REMARKS
PALM SPRINGS   SUNNY     84  51  31 SE6       29.77R
THOUSAND PALMS   N/A     86  52  30 W6        29.73
PALM DESERT      N/A     87  57  36 CALM        N/A
THERMAL        SUNNY     83  49  30 SE10      29.73R
BLYTHE         SUNNY     83  45  26 SE8       29.77R
IMPERIAL AP    SUNNY     83  50  31 CALM      29.74R
EL CENTRO NAS  SUNNY     84  53  34 CALM      29.76R
YUMA AZ        SUNNY     82  41  23 S12       29.78R
MEXICALI       SUNNY     79  59  50 SE12      29.76S

$$

UPPER DESERT

CITY           SKY/WX    TMP DP  RH WIND       PRES   REMARKS
VICTORVILLE AP SUNNY     81  32  17 W9        29.95R
HESPERIA         N/A     80  41  25 CALM      29.93S
PALMDALE       SUNNY     84  35  17 NW9       29.93S
LANCASTER      SUNNY     86  36  16 VRB6      29.92R
EDWARDS AFB    MOSUNNY   83  37  19 SW6       29.90R
DAGGETT        SUNNY     84  40  21 NW14      29.88R
29 PALMS N     MOSUNNY   86  36  16 NW16      29.92
NEEDLES        SUNNY     86  31  13 VRB5      29.80R

$$

REGIONAL REPORTS

CITY           SKY/WX    TMP DP  RH WIND       PRES   REMARKS
SANTA BARBARA  CLOUDY    57  55  93 SE5       29.91R
SANDBERG       LGT RAIN  77  34  21 N6        30.05S
LAS VEGAS NV   MOSUNNY   87  33  14 NE8       29.86R
PHOENIX AZ     SUNNY     82  22  11 E7        29.80S
TIJUANA        CLOUDY    63  54  72 CALM      29.93S FOG
ENSENADA NW      N/A     60  32  35 W1        29.89S

$$

OFFSHORE ISLANDS

CITY           SKY/WX    TMP DP  RH WIND       PRES   REMARKS
CATALINA ARPT  FOG       55  55 100 CALM      29.92R VSB<1/4
SAN CLEMENTE I DRIZZLE   58  56  93 W5        29.93R
SAN NICOLAS IS CLOUDY    56  32  40 NW7       29.90S FOG

$$

MARINE AND OFFSHORE BUOY REPORTS

STATION/POSITION SKY/WX   TEMP    WIND        PRES    SWELL
                          AIR SEA DIR/SP/G            HT/PER/DIR
                          (F)     (DEG/KT/KT) (MB)    (FT/S/D)
TANNER BANKS               58 61  300/ 10/ 12 1013.2R   7/210/16
S CLEMENTE BASIN           58 62  250/  6/  6 1012.7R   5/200/16
SAN NICOLAS IS.               58                N/A     5/190/15
SO. S. ROSA ISLA           55 60  320/ 14/ 16 1012.6R   5/190/16
W. S. BARBARA CH           53 55  340/ 10/ 12 1012.6R   5/190/16
M. S. BARBARA CH           56 59  130/  4/  6 1013.4R
S. MONICA BASIN            59 63  120/  6/  8 1012.8R   3/200/16
S PEDRO CHANNEL               62                N/A     2/190/17
OCEANSIDE OFFSHR              63                N/A     3/200/17
TORREY PINES OTR              65                N/A     3/200/17
LA JOLLA 1                 63 63  240/  4/  5 1012.4R
SAN DIEGO BAY                 67              1012.8R
POINT LOMA SOUTH              65                N/A     3/210/15

$$




USA.gov is the U.S. government's official web portal to all federal, state and local government web resources and services.